Wind_Speed
21 22 24 26 27 28 30 32 34 35 37 41 45 47 49 52 55 57 62 65 63 58 60 66 70 73 76 78 80 81 82 82 85 83 82 80 77 79 76 77 76 75 73 72 71 62 52 53 50 50 46 47 44 43
18 19 21 22 22 23 25 29 32 34 36 37 40 41 40 40 39 41 47 51 51 49 52 59 62 64 67 67 70 70 71 73 72 69 69 68 67 67 67 64 65 62 61 60 55 49 45 46 47 43 41 40 37 37
14 15 17 19 21 22 23 24 26 28 30 32 34 35 35 38 40 43 41 42 44 47 50 49 56 56 55 58 57 58 60 61 61 58 57 56 54 57 56 55 54 53 51 48 43 42 42 41 39 36 34 35 34 34
10 11 14 16 18 19 19 21 24 26 27 27 29 31 33 35 36 35 37 39 42 42 42 47 47 50 49 48 49 51 50 49 48 47 45 46 47 48 47 44 41 39 41 40 36 36 33 32 33 32 31 30 29 29
9 9 9 10 12 16 19 19 21 22 23 24 26 27 29 29 30 31 32 33 35 38 39 39 40 41 42 43 43 41 39 40 39 39 40 39 39 36 33 31 33 34 31 31 31 29 29 29 30 28 28 28 29 29
11 13 14 15 16 16 18 20 21 22 23 24 23 23 23 25 27 29 30 32 32 30 32 36 37 37 36 35 34 34 35 34 35 35 33 30 28 30 31 32 28 26 27 29 27 27 26 25 25 26 26 26 26 24
13 14 15 16 16 17 19 19 19 20 21 23 24 26 28 30 32 32 29 26 26 28 28 28 28 28 29 29 30 30 27 28 26 23 25 27 27 26 27 24 25 25 26 25 24 24 24 25 25 26 25 24 21 20
15 15 15 16 17 18 19 20 20 20 21 23 24 25 25 26 26 27 27 28 27 26 26 27 27 27 27 26 24 22 23 22 24 25 24 24 25 24 24 23 22 24 23 23 24 25 25 24 24 23 22 22 22 23
17 17 18 18 19 20 20 21 21 21 21 22 23 24 24 25 26 25 26 27 27 25 25 23 22 21 20 19 21 23 25 25 25 24 23 22 23 22 21 23 24 23 22 22 23 23 23 23 22 22 22 22 24 26
20 20 21 21 21 21 21 22 22 21 22 22 22 21 22 23 24 24 25 25 25 24 24 25 25 24 25 26 26 25 25 23 22 23 21 21 20 21 23 23 21 20 21 22 22 21 22 22 23 24 26 28 29 31
22 21 21 21 21 21 21 21 21 23 23 23 22 22 22 22 22 21 23 24 26 26 25 26 26 25 26 24 24 23 23 23 23 21 20 20 21 20 19 19 19 19 20 20 20 22 23 25 26 28 29 31 32 33
20 20 20 20 20 20 20 21 22 22 23 24 25 25 24 23 23 23 23 23 25 27 28 27 26 26 26 25 25 25 24 22 21 20 19 18 18 17 17 17 18 19 20 21 22 23 26 28 29 30 31 33 35 36
20 19 19 19 19 18 19 20 21 21 22 23 24 26 27 26 26 26 26 26 26 26 26 27 28 28 28 27 26 23 21 20 18 16 15 15 15 14 15 16 17 19 21 23 25 27 29 30 32 34 35 36 37 38
18 19 21 20 19 18 18 19 20 22 23 23 24 25 25 25 24 24 25 26 27 28 28 27 26 26 24 23 23 21 18 16 14 13 13 14 14 14 15 17 19 21 23 25 27 29 31 32 33 33 34 36 39 40
17 18 18 18 18 18 16 18 19 19 21 20 21 24 26 27 27 29 31 33 33 32 30 29 28 26 24 21 19 17 15 14 13 12 12 13 14 15 17 19 21 23 25 26 28 30 30 30 30 33 36 39 40 41
15 15 15 15 16 15 15 15 17 20 24 24 24 25 28 30 31 32 33 33 33 32 30 28 25 22 19 17 15 15 13 12 12 12 13 14 15 17 18 20 22 24 25 27 29 31 32 32 33 36 38 40 41 42
13 13 13 13 12 13 15 14 16 21 25 26 26 26 28 30 30 30 30 28 26 25 24 22 21 19 18 16 14 13 13 12 12 13 14 16 17 18 20 21 22 24 26 29 30 31 31 32 33 35 37 39 41 42
12 13 13 13 13 15 17 18 18 21 22 24 25 26 27 29 29 27 26 24 23 22 22 21 19 19 17 16 15 14 13 13 13 14 16 18 18 18 20 22 24 27 28 28 28 28 29 29 29 29 30 31 33 33
11 12 13 14 14 15 19 21 22 24 25 25 25 25 26 26 26 25 25 23 22 20 18 17 18 18 17 16 14 13 13 14 15 16 18 18 19 20 23 25 26 26 26 26 26 27 26 25 25 25 25 26 27 28
8 11 12 15 15 17 19 22 23 24 24 24 25 23 22 22 22 21 18 16 16 16 17 18 18 17 16 14 14 14 15 15 16 18 19 20 21 23 25 25 26 26 25 25 25 25 24 23 23 23 22 23 24 25
7 9 12 14 16 20 22 22 22 22 21 23 23 23 22 21 19 17 17 16 16 16 16 16 17 16 15 15 16 16 16 17 18 20 21 23 23 24 25 27 27 26 24 23 23 23 23 21 20 21 21 21 22 24
6 7 9 13 17 20 19 20 21 22 22 21 21 21 21 20 19 18 16 16 17 17 17 18 18 17 17 17 17 17 18 19 21 22 23 24 25 25 25 27 29 28 27 23 22 22 21 22 21 21 21 22 22 23
4 7 9 11 15 17 18 17 18 19 22 23 24 24 23 22 23 22 21 20 20 20 20 20 19 19 18 19 19 20 21 23 24 25 26 27 28 28 28 29 30 30 29 27 25 23 22 21 21 22 21 22 23 24
6 7 9 11 12 14 15 17 18 20 22 23 24 25 26 25 25 24 24 23 22 22 21 21 21 21 22 23 24 24 25 26 26 28 29 29 30 31 31 31 31 32 31 29 28 26 24 23 22 22 23 23 23 24
7 8 9 11 14 15 17 18 19 21 23 25 26 25 26 26 26 27 27 27 26 26 25 25 25 25 26 27 27 27 28 29 30 31 32 32 33 33 34 34 33 32 31 32 30 28 27 26 25 25 23 24 25 25
6 8 10 12 13 16 17 19 20 22 24 26 26 26 26 27 28 29 29 29 29 30 30 30 29 29 29 30 30 31 32 33 33 34 34 36 36 35 35 35 35 33 33 33 32 30 29 28 27 26 26 26 26 26
7 7 10 10 12 14 16 18 21 22 24 25 26 27 28 30 31 30 29 30 30 31 31 32 32 33 33 33 34 34 35 35 35 36 36 37 37 37 37 37 36 34 33 32 31 30 30 29 28 27 27 27 28 28
8 9 10 11 13 14 16 17 19 21 23 24 26 28 29 30 30 30 32 32 33 34 34 34 34 35 35 36 36 36 36 37 37 38 39 40 39 38 37 35 34 33 32 31 30 30 30 29 28 28 27 27 28 28
11 11 11 12 14 15 16 18 19 20 20 22 24 26 28 27 29 31 32 33 34 34 34 34 35 35 36 36 37 37 38 38 40 41 40 37 35 34 34 33 32 31 30 30 30 29 29 28 28 27 27 27 27 27
13 14 14 14 14 14 16 18 20 21 22 23 24 25 26 27 28 29 31 31 32 32 33 34 35 35 36 37 38 38 38 37 36 36 34 33 32 31 31 30 30 29 28 28 27 27 26 26 26 26 26 25 25 26
18 16 15 16 16 17 19 19 19 20 21 23 26 27 27 28 30 31 32 33 33 33 34 34 35 36 37 37 36 34 32 31 32 32 31 30 30 30 29 27 27 26 26 26 25 25 24 24 24 24 24 24 25 25
20 19 19 18 18 18 17 18 20 21 23 24 25 24 24 25 26 26 28 29 28 29 29 31 31 32 32 32 31 30 29 29 29 28 28 28 27 27 26 25 25 25 25 24 24 23 23 23 23 23 24 24 25 26
22 22 22 21 20 20 20 20 20 21 22 24 25 27 28 28 28 27 25 26 27 28 29 30 29 29 29 29 29 29 29 29 28 27 26 25 24 24 24 25 25 24 24 23 23 23 23 23 23 23 24 25 26 26
Wind_Direction
249 242 236 235 232 229 226 227 227 230 229 227 227 229 228 228 231 234 232 236 239 237 236 234 236 238 240 243 244 246 249 253 254 256 259 261 262 263 263 264 264 263 264 266 269 273 272 268 266 262 262 260 259 258
240 235 230 226 223 222 223 220 219 219 219 218 221 224 226 226 226 227 228 230 233 235 233 232 233 236 236 239 242 244 246 249 252 255 255 257 258 259 261 261 262 263 263 262 265 265 261 258 257 257 254 254 251 253
229 221 219 217 215 212 211 211 212 215 215 216 218 219 216 218 219 223 225 225 224 222 225 226 228 231 235 236 239 243 245 246 249 251 252 254 255 254 255 255 257 259 260 262 260 255 250 247 250 248 246 246 247 251
213 209 205 204 205 205 206 207 206 203 205 207 206 206 207 211 214 216 217 218 218 219 219 222 223 225 230 234 236 240 243 245 248 249 250 248 248 250 252 255 256 254 251 250 246 246 244 240 240 240 238 239 240 240
174 176 185 191 192 193 189 188 194 192 195 198 199 200 201 204 206 207 209 211 212 214 216 217 221 225 226 228 230 234 237 238 239 240 241 243 245 248 248 244 238 241 243 242 239 235 232 232 233 233 233 232 233 236
151 155 161 165 169 171 178 177 175 180 180 186 186 188 189 192 194 196 198 201 204 206 210 212 214 217 221 225 227 228 230 232 235 235 238 239 235 232 233 237 239 231 230 230 228 224 224 225 225 226 229 233 236 235
140 145 149 151 154 160 163 157 164 166 172 174 176 176 178 181 184 186 187 192 196 200 203 206 210 212 213 215 218 223 225 226 227 227 224 222 224 226 227 227 222 220 221 222 221 221 219 217 218 222 228 232 231 232
131 133 134 139 141 143 144 149 150 156 164 166 169 172 175 177 180 182 184 183 188 190 193 197 199 203 207 211 213 211 212 211 207 211 214 217 217 215 214 208 207 209 210 212 216 218 220 221 223 228 227 227 229 237
123 124 126 130 134 139 141 142 146 151 156 159 162 167 172 174 176 178 179 180 182 182 186 188 188 189 188 191 194 194 194 196 198 198 200 200 202 196 193 196 202 202 205 211 217 221 225 227 231 232 231 233 238 243
113 119 124 127 129 134 136 137 141 145 147 149 153 157 159 163 168 170 169 175 172 169 173 174 176 178 179 182 184 186 189 188 187 187 187 186 182 187 195 201 204 208 213 218 221 228 232 234 233 233 235 237 240 244
115 118 120 120 122 126 129 132 136 138 141 145 147 149 153 157 161 160 164 167 167 169 169 171 174 176 174 171 171 171 170 172 173 173 175 179 186 193 199 206 211 214 220 226 231 236 239 240 240 240 241 242 247 250
119 121 122 123 126 129 130 131 134 139 144 147 148 150 150 152 155 159 161 162 163 164 164 165 164 163 163 160 158 159 159 161 166 172 180 188 194 200 203 207 214 223 230 235 239 241 243 245 245 246 247 249 251 255
121 121 120 121 124 127 129 131 135 138 140 144 148 149 148 151 155 155 158 161 163 163 161 158 158 158 154 154 154 155 158 166 172 177 184 192 202 209 220 229 237 242 245 247 247 248 247 247 249 250 251 253 255 257
121 121 122 124 126 126 129 135 139 142 146 150 152 154 153 153 152 148 150 152 152 152 150 151 148 148 152 153 153 155 159 165 175 186 198 209 217 227 237 245 250 252 254 255 257 259 259 260 260 260 260 260 260 261
122 122 125 126 126 129 137 142 140 142 143 145 146 143 144 144 145 146 148 149 149 148 148 148 150 152 153 154 156 158 167 179 190 199 209 219 229 237 243 249 254 257 262 265 268 268 268 268 267 265 263 262 262 262
119 126 129 126 131 132 139 141 139 141 140 140 143 144 145 146 148 150 150 151 150 152 152 152 153 154 156 161 167 175 182 186 199 214 227 237 245 253 261 267 270 274 275 276 275 274 273 270 266 264 264 264 263 263
126 133 131 130 132 131 133 139 141 145 146 146 147 151 151 151 151 152 150 150 152 154 154 157 158 162 167 173 177 182 194 206 218 230 243 251 258 264 268 272 276 280 282 282 280 277 275 272 269 266 264 263 263 263
133 138 139 141 142 140 136 135 138 144 148 151 153 154 153 154 153 151 152 154 162 165 165 167 171 174 178 183 191 199 212 226 237 247 255 261 264 267 272 279 285 286 286 285 286 283 281 277 273 269 265 263 262 261
143 147 149 150 149 147 141 144 151 154 156 159 160 161 161 159 159 162 164 167 169 170 173 179 184 189 193 199 208 220 232 241 249 257 261 264 269 276 282 287 289 292 291 290 292 291 289 283 277 273 268 264 261 260
153 159 158 152 150 148 152 156 160 165 168 168 166 167 168 169 171 172 172 176 180 181 186 193 199 204 210 217 227 237 246 253 258 262 266 272 278 282 286 292 296 297 297 293 293 293 291 286 283 278 274 270 266 263
163 174 166 162 161 163 166 168 172 177 178 177 175 174 177 180 183 184 185 187 192 198 204 212 217 218 223 232 240 246 251 256 260 264 270 277 283 289 294 297 298 299 300 298 295 295 293 286 282 280 278 275 273 271
170 195 194 178 174 181 188 186 184 185 184 185 185 187 189 190 192 195 199 204 209 213 218 223 227 232 237 242 248 252 255 258 262 267 274 281 287 291 294 296 298 300 301 299 297 296 293 290 285 281 279 276 275 272
200 199 209 212 204 198 198 199 195 192 191 194 196 197 201 204 207 208 210 214 219 225 230 235 241 244 247 251 254 257 260 263 267 272 278 283 287 291 294 295 297 298 300 301 298 296 293 290 286 282 279 279 277 276
225 225 208 209 217 217 214 206 204 204 205 206 208 210 212 215 218 223 226 230 233 236 242 245 249 250 252 255 258 262 265 270 274 278 281 284 288 291 293 293 294 296 297 299 298 296 295 292 287 283 280 279 279 279
254 239 229 221 216 215 217 218 218 216 217 220 221 224 226 229 229 230 233 237 239 243 246 249 252 255 259 261 265 270 273 277 280 283 285 287 288 290 290 290 291 293 296 296 295 294 293 291 289 287 284 281 281 281
281 270 258 246 239 232 228 224 223 225 227 229 231 233 235 237 238 240 243 245 248 250 254 257 260 263 266 270 273 276 278 281 283 286 286 287 288 288 288 288 290 293 293 292 290 290 290 290 289 288 286 285 282 283
283 264 258 258 254 249 243 239 236 233 233 235 235 237 240 243 246 247 250 253 255 257 260 262 265 268 271 273 275 277 279 281 282 283 284 284 285 285 287 289 293 292 292 291 290 289 287 287 287 287 286 284 285 285
296 291 267 259 251 250 251 249 249 246 245 244 244 244 245 248 251 253 254 257 259 261 263 266 268 271 273 275 276 277 278 278 279 280 280 281 284 288 290 291 292 292 291 290 288 286 285 286 286 285 285 285 285 287
302 290 274 269 261 256 251 249 248 247 247 248 250 251 252 253 254 255 256 258 260 262 264 265 267 268 269 270 272 272 273 274 275 277 281 285 287 287 287 288 287 288 288 287 287 286 286 287 287 287 286 286 287 289
311 302 293 280 267 261 256 255 253 252 250 250 249 250 251 251 253 254 255 256 258 259 261 263 264 266 266 267 269 271 275 278 281 284 284 285 286 286 285 286 286 286 286 286 287 286 286 286 287 288 288 288 290 293
314 305 297 290 283 276 268 263 258 258 260 258 257 256 257 256 256 256 257 258 259 260 262 264 266 269 270 273 276 279 281 282 283 283 283 283 283 284 285 287 285 285 284 284 285 285 285 285 285 285 285 287 289 291
319 312 302 295 289 283 282 277 270 265 261 258 257 258 260 262 262 264 262 264 266 268 269 270 270 271 273 275 277 279 280 279 278 278 279 280 280 282 283 284 282 282 283 284 285 285 286 286 287 286 286 288 291 293
318 314 311 306 298 288 280 275 271 268 266 265 264 261 260 260 261 264 265 266 265 263 263 265 268 272 275 276 275 274 275 277 278 279 280 281 281 281 282 283 283 284 285 286 285 286 286 287 287 287 287 289 290 292
Height
9892 9894 9897 9901 9906 9910 9915 9921 9927 9932 9940 9948 9956 9964 9974 9983 9992 10002 10009 10016 10028 10046 10060 10069 10077 10085 10096 10106 10114 10122 10130 10141 10143 10150 10156 10163 10170 10172 10175 10179 10183 10182 10185 10187 10189 10192 10198 10193 10197 10197 10200 10201 10205 10207
9886 9889 9892 9895 9900 9905 9910 9915 9920 9926 9933 9940 9947 9955 9966 9975 9985 9993 9999 10009 10019 10034 10044 10050 10062 10071 10080 10091 10099 10107 10115 10120 10127 10135 10141 10144 10152 10152 10155 10163 10161 10165 10167 10170 10176 10180 10180 10180 10180 10185 10188 10191 10194 10197
9883 9885 9888 9891 9894 9899 9904 9909 9914 9920 9927 9934 9942 9950 9959 9967 9975 9980 9992 10002 10011 10019 10027 10040 10046 10057 10070 10075 10085 10093 10099 10106 10111 10118 10124 10129 10135 10136 10139 10143 10146 10150 10152 10154 10158 10161 10162 10166 10170 10174 10177 10180 10183 10187
9881 9883 9886 9889 9892 9895 9900 9905 9911 9916 9923 9930 9938 9947 9953 9960 9967 9977 9985 9993 10001 10011 10020 10027 10038 10045 10055 10066 10072 10078 10087 10094 10099 10104 10111 10115 10118 10120 10124 10129 10134 10137 10139 10140 10145 10147 10153 10157 10160 10164 10166 10170 10175 10180
9881 9883 9885 9887 9891 9896 9901 9905 9911 9916 9923 9929 9936 9944 9951 9959 9967 9975 9982 9989 9998 10004 10013 10023 10032 10040 10048 10055 10061 10069 10076 10082 10088 10093 10097 10102 10106 10111 10116 10119 10121 10125 10129 10132 10135 10139 10143 10148 10152 10156 10160 10164 10169 10174
9882 9884 9887 9890 9894 9897 9901 9906 9910 9916 9922 9929 9935 9942 9950 9958 9965 9971 9978 9985 9992 10002 10011 10018 10026 10032 10040 10047 10054 10060 10065 10072 10078 10083 10088 10093 10097 10101 10104 10107 10114 10117 10121 10124 10128 10133 10138 10142 10147 10152 10156 10160 10163 10166
9885 9887 9889 9892 9896 9900 9904 9908 9913 9918 9924 9929 9935 9941 9947 9953 9958 9965 9975 9985 9993 9999 10006 10014 10021 10029 10035 10041 10047 10053 10060 10065 10071 10076 10081 10085 10089 10093 10098 10102 10107 10111 10115 10119 10125 10129 10133 10138 10143 10146 10150 10153 10157 10160
9890 9892 9894 9897 9900 9903 9907 9911 9915 9921 9927 9932 9938 9944 9950 9957 9963 9969 9975 9981 9988 9996 10003 10010 10017 10024 10031 10037 10044 10050 10055 10060 10065 10069 10075 10079 10084 10089 10094 10098 10102 10107 10112 10117 10121 10125 10129 10133 10137 10141 10144 10148 10152 10155
9895 9898 9901 9903 9905 9908 9911 9916 9920 9926 9932 9936 9941 9946 9951 9957 9963 9969 9976 9982 9988 9996 10003 10010 10016 10023 10029 10035 10040 10046 10050 10055 10061 10066 10071 10076 10081 10086 10091 10095 10100 10105 10110 10114 10117 10121 10125 10129 10132 10135 10138 10142 10145 10148
9903 9905 9907 9909 9911 9915 9918 9921 9926 9931 9935 9940 9946 9951 9956 9962 9967 9973 9979 9984 9991 9997 10004 10010 10016 10022 10027 10032 10038 10044 10049 10055 10059 10064 10069 10074 10079 10084 10089 10094 10099 10103 10107 10110 10113 10118 10121 10124 10127 10130 10133 10135 10137 10140
9910 9911 9914 9917 9920 9923 9926 9929 9933 9937 9942 9946 9950 9955 9961 9966 9972 9978 9983 9988 9992 9998 10005 10010 10016 10022 10028 10034 10040 10045 10050 10055 10059 10065 10070 10074 10080 10085 10090 10094 10097 10101 10103 10107 10110 10113 10115 10118 10121 10123 10126 10128 10130 10132
9917 9919 9921 9924 9926 9929 9933 9936 9939 9943 9945 9949 9953 9959 9964 9969 9975 9980 9985 9990 9995 10000 10006 10012 10018 10024 10029 10034 10040 10045 10049 10055 10060 10065 10070 10075 10079 10083 10087 10090 10094 10096 10099 10102 10105 10107 10109 10111 10113 10116 10118 10120 10121 10123
9924 9926 9929 9931 9933 9935 9938 9941 9944 9947 9950 9954 9958 9962 9966 9972 9977 9982 9987 9993 9999 10005 10010 10015 10020 10026 10031 10037 10042 10047 10052 10057 10061 10066 10071 10075 10078 10082 10085 10088 10090 10092 10094 10096 10098 10099 10101 10103 10105 10106 10108 10110 10111 10112
9931 9933 9935 9937 9940 9942 9945 9947 9949 9952 9955 9959 9963 9967 9972 9976 9982 9987 9992 9998 10004 10009 10014 10020 10026 10031 10036 10040 10044 10049 10053 10058 10062 10066 10070 10073 10077 10079 10082 10084 10085 10087 10088 10089 10090 10092 10093 10093 10095 10096 10097 10098 10099 10099
9938 9940 9942 9944 9946 9948 9950 9952 9955 9959 9962 9967 9970 9974 9977 9982 9987 9992 9997 10002 10007 10012 10018 10023 10028 10033 10038 10043 10047 10051 10055 10058 10062 10066 10069 10071 10074 10076 10078 10079 10080 10081 10081 10082 10083 10083 10083 10084 10085 10085 10085 10085 10085 10086
9945 9947 9948 9950 9952 9953 9956 9959 9961 9964 9967 9972 9976 9979 9983 9988 9992 9996 10001 10006 10011 10016 10020 10025 10031 10036 10041 10045 10049 10052 10056 10059 10062 10065 10067 10069 10071 10072 10073 10074 10074 10074 10075 10074 10073 10072 10072 10072 10072 10071 10071 10071 10072 10072
9951 9953 9955 9956 9958 9960 9962 9965 9968 9970 9974 9977 9982 9986 9990 9994 9998 10003 10008 10013 10018 10022 10026 10030 10034 10038 10042 10046 10049 10052 10056 10059 10061 10063 10065 10066 10067 10068 10069 10069 10068 10068 10067 10065 10063 10062 10061 10060 10060 10059 10058 10058 10058 10059
9955 9957 9959 9961 9963 9965 9967 9971 9975 9977 9981 9984 9988 9992 9996 10000 10005 10009 10013 10017 10021 10025 10028 10032 10036 10039 10043 10046 10049 10052 10054 10056 10058 10060 10061 10062 10062 10063 10063 10062 10062 10060 10058 10056 10054 10052 10050 10048 10047 10046 10046 10046 10045 10046
9960 9961 9962 9964 9967 9970 9972 9974 9978 9981 9984 9988 9993 9997 10001 10005 10008 10011 10015 10018 10022 10026 10030 10033 10036 10039 10042 10045 10048 10050 10052 10054 10055 10056 10056 10056 10057 10057 10057 10056 10054 10052 10049 10047 10045 10042 10040 10038 10037 10036 10036 10035 10035 10035
9964 9965 9966 9968 9971 9974 9976 9978 9981 9984 9988 9992 9996 10000 10004 10007 10010 10014 10017 10021 10024 10027 10030 10033 10036 10038 10041 10044 10046 10047 10049 10050 10051 10051 10051 10051 10052 10051 10051 10049 10046 10044 10041 10039 10037 10034 10032 10029 10028 10027 10027 10027 10026 10026
9967 9969 9970 9971 9973 9976 9978 9980 9983 9987 9990 9994 9998 10002 10006 10009 10012 10015 10018 10021 10023 10026 10029 10032 10034 10036 10038 10040 10042 10043 10045 10045 10046 10046 10046 10046 10046 10045 10044 10041 10039 10036 10034 10031 10029 10027 10024 10023 10021 10020 10019 10019 10018 10018
9970 9972 9973 9973 9975 9976 9978 9980 9983 9987 9991 9996 10000 10003 10006 10009 10012 10015 10017 10020 10022 10025 10027 10030 10031 10033 10035 10037 10038 10039 10040 10040 10041 10041 10041 10040 10039 10039 10037 10034 10031 10028 10026 10024 10022 10020 10017 10015 10014 10013 10012 10011 10011 10010
9972 9973 9975 9976 9976 9978 9980 9983 9986 9988 9991 9995 9998 10001 10005 10008 10010 10012 10014 10017 10019 10022 10024 10026 10028 10030 10031 10032 10033 10034 10035 10035 10035 10035 10034 10033 10032 10031 10029 10026 10023 10020 10018 10016 10014 10012 10010 10009 10007 10005 10005 10004 10003 10002
9971 9972 9973 9975 9977 9978 9981 9983 9985 9988 9991 9993 9996 9999 10001 10004 10007 10010 10012 10014 10016 10018 10020 10022 10023 10025 10026 10027 10027 10028 10028 10029 10029 10028 10027 10026 10024 10022 10019 10017 10014 10012 10010 10008 10005 10004 10002 10001 9999 9998 9997 9996 9995 9994
9972 9972 9973 9973 9974 9976 9978 9980 9983 9985 9988 9990 9992 9995 9998 10001 10003 10005 10007 10009 10011 10013 10014 10016 10017 10018 10019 10020 10020 10021 10021 10021 10020 10019 10018 10016 10014 10012 10010 10007 10005 10004 10001 9999 9997 9995 9994 9992 9991 9989 9988 9987 9986 9985
9970 9971 9971 9971 9972 9973 9975 9976 9978 9980 9982 9985 9987 9990 9992 9995 9997 9999 10001 10003 10004 10006 10007 10008 10009 10010 10011 10012 10012 10012 10012 10011 10010 10009 10007 10005 10003 10001 9999 9997 9995 9995 9993 9990 9988 9986 9985 9983 9982 9980 9979 9978 9977 9976
9968 9968 9968 9969 9969 9970 9971 9972 9973 9974 9976 9978 9981 9983 9985 9987 9988 9990 9993 9994 9996 9997 9998 9999 10000 10001 10002 10002 10002 10001 10001 10000 9998 9997 9995 9993 9991 9990 9988 9987 9985 9984 9982 9980 9978 9976 9975 9974 9973 9972 9970 9969 9967 9966
9966 9965 9965 9965 9965 9966 9966 9967 9968 9969 9970 9972 9974 9975 9976 9978 9980 9983 9983 9985 9986 9987 9988 9989 9990 9990 9990 9990 9990 9989 9989 9987 9986 9984 9982 9981 9980 9979 9978 9976 9974 9973 9971 9970 9969 9967 9966 9965 9964 9962 9961 9959 9958 9957
9963 9962 9961 9961 9960 9960 9961 9961 9962 9963 9964 9965 9966 9967 9968 9969 9971 9972 9973 9974 9975 9976 9977 9977 9978 9978 9978 9977 9977 9976 9976 9975 9974 9972 9971 9971 9970 9969 9967 9966 9964 9962 9961 9960 9959 9957 9956 9955 9954 9953 9951 9950 9949 9948
9960 9958 9957 9956 9955 9955 9955 9955 9955 9955 9956 9957 9958 9958 9959 9960 9961 9962 9962 9963 9964 9965 9965 9965 9965 9965 9965 9964 9964 9963 9963 9963 9962 9961 9960 9959 9959 9957 9956 9955 9953 9952 9951 9950 9948 9947 9946 9945 9944 9943 9942 9941 9940 9939
9956 9954 9952 9951 9950 9950 9949 9948 9948 9948 9948 9948 9949 9949 9950 9950 9951 9951 9951 9952 9953 9953 9953 9954 9953 9953 9953 9952 9952 9953 9953 9953 9952 9950 9949 9948 9947 9946 9945 9944 9943 9941 9940 9939 9938 9938 9937 9936 9935 9934 9933 9933 9931 9930
9952 9949 9947 9945 9944 9943 9942 9942 9941 9940 9940 9940 9940 9941 9941 9941 9941 9941 9942 9942 9943 9943 9944 9943 9943 9942 9942 9942 9942 9942 9942 9941 9940 9939 9938 9937 9937 9936 9935 9934 9932 9931 9930 9930 9929 9929 9928 9927 9926 9926 9925 9924 9923 9922
9946 9944 9941 9939 9938 9937 9935 9934 9933 9932 9932 9932 9931 9931 9931 9931 9931 9931 9933 9933 9933 9933 9932 9932 9932 9932 9933 9932 9932 9932 9931 9930 9930 9929 9929 9928 9928 9927 9926 9925 9924 9923 9923 9922 9921 9920 9919 9919 9918 9917 9916 9915 9914 9912